ACA419 CYUL-CYYZ

Flight info

Callsign ACA419
Flight time 0h 54m
Altitude 34000
Route BOBKI DCT MELTI DCT TORNI RAGID6
Aircraft A321/M-SDE3FGHIRWY/LB1

Departure

Time 2026-05-04 20:06
Airport Montreal / Pierre Elliott Trudeau International Airport (CYUL)

Arrival

Time 2026-05-04 21:01
Airport Toronto Pearson International Airport (CYYZ)
Time Latitude Longitude Altitude Speed Heading
2026-05-04 19:05 45.45889 -73.74544 105 ft 0 kts 178°
2026-05-04 19:55 45.45898 -73.74545 104 ft 4 kts 178°
2026-05-04 19:55 45.45923 -73.74546 104 ft 2 kts 178°
2026-05-04 19:55 45.45945 -73.74552 104 ft 4 kts 138°
2026-05-04 19:56 45.45956 -73.74582 103 ft 4 kts 91°
2026-05-04 19:56 45.45956 -73.74603 102 ft 0 kts 78°
2026-05-04 19:58 45.45956 -73.74601 105 ft 0 kts 78°
2026-05-04 19:59 45.45958 -73.74590 105 ft 3 kts 77°
2026-05-04 19:59 45.45968 -73.74534 102 ft 12 kts 73°
2026-05-04 19:59 45.45993 -73.74396 104 ft 15 kts 97°
2026-05-04 19:59 45.45984 -73.74265 103 ft 14 kts 54°
2026-05-04 20:00 45.46060 -73.74162 103 ft 15 kts 42°
2026-05-04 20:00 45.46130 -73.74071 103 ft 12 kts 43°
2026-05-04 20:00 45.46194 -73.73987 104 ft 15 kts 43°
2026-05-04 20:00 45.46275 -73.73880 106 ft 15 kts 43°
2026-05-04 20:01 45.46346 -73.73787 107 ft 13 kts 42°
2026-05-04 20:01 45.46406 -73.73709 107 ft 11 kts 42°
2026-05-04 20:01 45.46465 -73.73632 109 ft 15 kts 42°
2026-05-04 20:01 45.46567 -73.73497 110 ft 24 kts 42°
2026-05-04 20:02 45.46686 -73.73341 112 ft 22 kts 42°
2026-05-04 20:02 45.46795 -73.73198 112 ft 20 kts 43°
2026-05-04 20:02 45.46894 -73.73068 115 ft 18 kts 42°
2026-05-04 20:02 45.46995 -73.72938 116 ft 21 kts 43°
2026-05-04 20:03 45.47115 -73.72778 115 ft 26 kts 43°
2026-05-04 20:03 45.47260 -73.72589 116 ft 30 kts 42°
2026-05-04 20:03 45.47410 -73.72394 116 ft 28 kts 43°
2026-05-04 20:03 45.47551 -73.72208 119 ft 27 kts 43°
2026-05-04 20:04 45.47683 -73.72035 120 ft 20 kts 42°
2026-05-04 20:04 45.47776 -73.71913 118 ft 16 kts 43°
2026-05-04 20:04 45.47807 -73.71817 120 ft 10 kts 105°
2026-05-04 20:04 45.47776 -73.71739 121 ft 8 kts 122°
2026-05-04 20:05 45.47741 -73.71675 123 ft 10 kts 134°
2026-05-04 20:05 45.47685 -73.71640 123 ft 8 kts 189°
2026-05-04 20:05 45.47643 -73.71682 122 ft 5 kts 223°
2026-05-04 20:05 45.47609 -73.71727 124 ft 19 kts 223°
2026-05-04 20:06 45.47324 -73.72099 118 ft 89 kts 222°
2026-05-04 20:06 45.46728 -73.72876 113 ft 140 kts 222°
2026-05-04 20:06 45.45918 -73.73924 281 ft 164 kts 220°
2026-05-04 20:06 45.45090 -73.75028 854 ft 165 kts 224°
2026-05-04 20:07 45.44257 -73.76167 1420 ft 167 kts 227°
2026-05-04 20:07 45.43514 -73.77419 1975 ft 165 kts 242°
2026-05-04 20:07 45.43209 -73.78985 2528 ft 168 kts 267°
2026-05-04 20:07 45.43217 -73.80629 3103 ft 167 kts 269°
2026-05-04 20:08 45.43213 -73.82346 3416 ft 184 kts 268°
2026-05-04 20:08 45.43201 -73.84281 3662 ft 207 kts 268°
2026-05-04 20:08 45.43178 -73.86446 3982 ft 230 kts 268°
2026-05-04 20:08 45.43142 -73.88807 4559 ft 243 kts 267°
2026-05-04 20:09 45.43096 -73.91232 5461 ft 247 kts 268°
2026-05-04 20:09 45.43042 -73.93683 6475 ft 249 kts 268°
2026-05-04 20:09 45.42984 -73.96150 7402 ft 249 kts 269°
2026-05-04 20:09 45.42922 -73.98609 8366 ft 249 kts 269°
2026-05-04 20:10 45.42857 -74.01079 9349 ft 250 kts 270°
2026-05-04 20:10 45.42789 -74.03555 10247 ft 254 kts 270°
2026-05-04 20:10 45.42719 -74.06176 10527 ft 276 kts 269°
2026-05-04 20:10 45.42641 -74.09013 10675 ft 298 kts 269°
2026-05-04 20:11 45.42561 -74.12023 11113 ft 308 kts 269°
2026-05-04 20:11 45.42476 -74.15097 11735 ft 313 kts 269°
2026-05-04 20:11 45.42391 -74.18212 12395 ft 317 kts 269°
2026-05-04 20:11 45.42303 -74.21361 13051 ft 321 kts 268°
2026-05-04 20:12 45.42213 -74.24556 13701 ft 325 kts 268°
2026-05-04 20:12 45.42122 -74.27784 14342 ft 328 kts 268°
2026-05-04 20:12 45.42027 -74.31044 14958 ft 332 kts 268°
2026-05-04 20:12 45.41929 -74.34342 15578 ft 335 kts 268°
2026-05-04 20:13 45.41829 -74.37669 16196 ft 338 kts 268°
2026-05-04 20:13 45.41727 -74.41029 16801 ft 341 kts 268°
2026-05-04 20:13 45.41437 -74.44384 17373 ft 345 kts 259°
2026-05-04 20:13 45.40878 -74.47729 17945 ft 348 kts 259°
2026-05-04 20:14 45.40315 -74.51094 18446 ft 351 kts 259°
2026-05-04 20:14 45.39748 -74.54486 18923 ft 354 kts 259°
2026-05-04 20:14 45.39174 -74.57909 19397 ft 357 kts 259°
2026-05-04 20:14 45.38596 -74.61357 19866 ft 360 kts 259°
2026-05-04 20:15 45.38020 -74.64787 20334 ft 363 kts 259°
2026-05-04 20:15 45.37423 -74.68336 20805 ft 366 kts 259°
2026-05-04 20:15 45.36829 -74.71866 21264 ft 369 kts 259°
2026-05-04 20:15 45.36226 -74.75429 21711 ft 372 kts 259°
2026-05-04 20:16 45.35623 -74.78972 22151 ft 375 kts 259°
2026-05-04 20:16 45.35007 -74.82588 22569 ft 378 kts 259°
2026-05-04 20:16 45.34386 -74.86231 23011 ft 381 kts 259°
2026-05-04 20:16 45.33759 -74.89903 23422 ft 383 kts 259°
2026-05-04 20:17 45.33129 -74.93594 23811 ft 385 kts 259°
2026-05-04 20:17 45.32494 -74.97301 24203 ft 387 kts 259°
2026-05-04 20:17 45.31854 -75.01023 24601 ft 388 kts 259°
2026-05-04 20:17 45.31211 -75.04755 24989 ft 390 kts 259°
2026-05-04 20:18 45.30561 -75.08503 25386 ft 391 kts 259°
2026-05-04 20:18 45.29907 -75.12257 25767 ft 393 kts 260°
2026-05-04 20:18 45.29246 -75.16030 26150 ft 394 kts 260°
2026-05-04 20:18 45.28583 -75.19814 26514 ft 396 kts 259°
2026-05-04 20:19 45.27918 -75.23608 26886 ft 397 kts 260°
2026-05-04 20:19 45.27249 -75.27426 27264 ft 399 kts 260°
2026-05-04 20:19 45.26579 -75.31247 27597 ft 400 kts 260°
2026-05-04 20:19 45.25905 -75.35090 27939 ft 402 kts 260°
2026-05-04 20:20 45.25228 -75.38944 28278 ft 403 kts 260°
2026-05-04 20:20 45.24549 -75.42810 28613 ft 404 kts 260°
2026-05-04 20:20 45.24096 -75.45377 28830 ft 405 kts 261°
2026-05-04 20:20 45.23411 -75.49264 29128 ft 407 kts 261°
2026-05-04 20:21 45.22721 -75.53169 29449 ft 409 kts 261°
2026-05-04 20:21 45.22026 -75.57081 29783 ft 409 kts 261°
2026-05-04 20:21 45.20626 -75.64890 30520 ft 407 kts 261°
2026-05-04 20:22 45.19926 -75.68774 30894 ft 406 kts 261°
2026-05-04 20:22 45.19226 -75.72653 31282 ft 405 kts 261°
2026-05-04 20:22 45.18530 -75.76511 31675 ft 404 kts 261°
2026-05-04 20:22 45.17837 -75.80365 32069 ft 403 kts 261°
2026-05-04 20:23 45.17145 -75.84206 32476 ft 401 kts 262°
2026-05-04 20:23 45.16455 -75.88027 32869 ft 400 kts 262°
2026-05-04 20:23 45.15762 -75.91844 33252 ft 399 kts 262°
2026-05-04 20:23 45.15069 -75.95650 33643 ft 398 kts 262°
2026-05-04 20:24 45.14379 -75.99441 33968 ft 397 kts 262°
2026-05-04 20:24 45.13692 -76.03236 34223 ft 397 kts 262°
2026-05-04 20:24 45.13005 -76.07027 34469 ft 398 kts 261°
2026-05-04 20:24 45.12320 -76.10766 34729 ft 398 kts 261°
2026-05-04 20:25 45.11620 -76.14561 34936 ft 399 kts 261°
2026-05-04 20:25 45.10917 -76.18358 35170 ft 399 kts 261°
2026-05-04 20:25 45.10164 -76.22150 35403 ft 402 kts 256°
2026-05-04 20:25 45.09013 -76.25795 35620 ft 410 kts 247°
2026-05-04 20:26 45.06235 -76.32850 35697 ft 409 kts 247°
2026-05-04 20:26 45.03462 -76.39859 35703 ft 408 kts 247°
2026-05-04 20:27 45.00684 -76.46853 35700 ft 408 kts 247°
2026-05-04 20:27 44.97917 -76.53845 35701 ft 407 kts 247°
2026-05-04 20:28 44.95155 -76.60814 35702 ft 406 kts 247°
2026-05-04 20:28 44.92387 -76.67772 35706 ft 406 kts 247°
2026-05-04 20:29 44.89605 -76.74710 35713 ft 406 kts 246°
2026-05-04 20:29 44.86821 -76.81643 35712 ft 406 kts 246°
2026-05-04 20:30 44.84037 -76.88570 35717 ft 406 kts 246°
2026-05-04 20:30 44.81266 -76.95453 35714 ft 406 kts 246°
2026-05-04 20:31 44.78477 -77.02374 35701 ft 406 kts 246°
2026-05-04 20:31 44.75688 -77.09290 35717 ft 406 kts 246°
2026-05-04 20:32 44.72898 -77.16189 35715 ft 405 kts 246°
2026-05-04 20:32 44.70099 -77.23070 35710 ft 405 kts 246°
2026-05-04 20:33 44.67306 -77.29937 35659 ft 405 kts 246°
2026-05-04 20:33 44.65898 -77.33398 34962 ft 410 kts 246°
2026-05-04 20:33 44.64479 -77.36869 34304 ft 410 kts 246°
2026-05-04 20:34 44.63055 -77.40344 33541 ft 413 kts 246°
2026-05-04 20:34 44.61615 -77.43854 32720 ft 415 kts 246°
2026-05-04 20:34 44.60175 -77.47364 31947 ft 416 kts 246°
2026-05-04 20:34 44.58739 -77.50853 31490 ft 410 kts 246°
2026-05-04 20:35 44.57337 -77.54250 30973 ft 406 kts 246°
2026-05-04 20:35 44.55935 -77.57655 30458 ft 401 kts 245°
2026-05-04 20:35 44.54546 -77.61025 29954 ft 397 kts 245°
2026-05-04 20:35 44.53171 -77.64367 29412 ft 393 kts 245°
2026-05-04 20:36 44.51795 -77.67708 28871 ft 388 kts 245°
2026-05-04 20:36 44.50472 -77.70919 28348 ft 384 kts 245°
2026-05-04 20:36 44.49142 -77.74133 27823 ft 379 kts 245°
2026-05-04 20:36 44.47824 -77.77317 27291 ft 376 kts 245°
2026-05-04 20:37 44.46520 -77.80462 26777 ft 372 kts 245°
2026-05-04 20:37 44.45223 -77.83580 26259 ft 369 kts 245°
2026-05-04 20:37 44.43939 -77.86654 25901 ft 361 kts 245°
2026-05-04 20:37 44.42688 -77.89647 25603 ft 353 kts 245°
2026-05-04 20:38 44.41461 -77.92593 25144 ft 349 kts 245°
2026-05-04 20:38 44.40244 -77.95516 24687 ft 346 kts 244°
2026-05-04 20:38 44.39038 -77.98405 24241 ft 342 kts 244°
2026-05-04 20:38 44.37843 -78.01263 23812 ft 339 kts 244°
2026-05-04 20:39 44.36658 -78.04092 23383 ft 336 kts 244°
2026-05-04 20:39 44.35485 -78.06897 22929 ft 332 kts 244°
2026-05-04 20:39 44.34327 -78.09657 22515 ft 327 kts 244°
2026-05-04 20:39 44.33185 -78.12373 22104 ft 323 kts 244°
2026-05-04 20:40 44.32052 -78.15058 21700 ft 319 kts 244°
2026-05-04 20:40 44.30935 -78.17709 21301 ft 316 kts 244°
2026-05-04 20:40 44.29825 -78.20344 20896 ft 314 kts 244°
2026-05-04 20:40 44.28719 -78.22965 20473 ft 312 kts 243°
2026-05-04 20:41 44.27619 -78.25564 20062 ft 310 kts 243°
2026-05-04 20:41 44.26524 -78.28151 19654 ft 309 kts 243°
2026-05-04 20:41 44.25436 -78.30728 19238 ft 307 kts 243°
2026-05-04 20:41 44.24354 -78.33292 18815 ft 306 kts 243°
2026-05-04 20:42 44.23279 -78.35841 18409 ft 304 kts 243°
2026-05-04 20:42 44.22205 -78.38380 18001 ft 303 kts 242°
2026-05-04 20:42 44.21132 -78.40902 17559 ft 302 kts 242°
2026-05-04 20:42 44.20066 -78.43407 17141 ft 299 kts 242°
2026-05-04 20:43 44.19008 -78.45899 16739 ft 297 kts 242°
2026-05-04 20:43 44.17970 -78.48338 16346 ft 296 kts 242°
2026-05-04 20:43 44.16924 -78.50794 15953 ft 294 kts 242°
2026-05-04 20:43 44.15882 -78.53240 15561 ft 293 kts 242°
2026-05-04 20:44 44.14845 -78.55671 15168 ft 292 kts 241°
2026-05-04 20:44 44.13810 -78.58091 14787 ft 290 kts 241°
2026-05-04 20:44 44.12779 -78.60502 14398 ft 289 kts 241°
2026-05-04 20:44 44.11751 -78.62900 14010 ft 288 kts 241°
2026-05-04 20:45 44.10726 -78.65287 13622 ft 288 kts 241°
2026-05-04 20:45 44.09704 -78.67679 13189 ft 288 kts 241°
2026-05-04 20:45 44.08684 -78.70066 12782 ft 286 kts 241°
2026-05-04 20:45 44.07668 -78.72430 12385 ft 283 kts 241°
2026-05-04 20:46 44.06658 -78.74774 11982 ft 282 kts 240°
2026-05-04 20:46 44.05651 -78.77107 11546 ft 281 kts 240°
2026-05-04 20:46 44.04650 -78.79429 11157 ft 279 kts 240°
2026-05-04 20:46 44.03492 -78.81580 10751 ft 279 kts 230°
2026-05-04 20:47 44.02174 -78.83563 10383 ft 278 kts 230°
2026-05-04 20:47 44.00886 -78.85492 10243 ft 268 kts 230°
2026-05-04 20:47 43.99631 -78.87369 10010 ft 262 kts 230°
2026-05-04 20:47 43.98398 -78.89211 9856 ft 260 kts 230°
2026-05-04 20:48 43.97178 -78.91031 9730 ft 253 kts 230°
2026-05-04 20:48 43.96005 -78.92780 9608 ft 243 kts 230°
2026-05-04 20:48 43.94879 -78.94458 9479 ft 233 kts 230°
2026-05-04 20:48 43.93798 -78.96072 9292 ft 224 kts 231°
2026-05-04 20:49 43.92747 -78.97648 8976 ft 221 kts 231°
2026-05-04 20:49 43.91705 -78.99206 8662 ft 217 kts 231°
2026-05-04 20:49 43.90680 -79.00741 8266 ft 217 kts 231°
2026-05-04 20:49 43.89656 -79.02274 7869 ft 216 kts 231°
2026-05-04 20:50 43.88638 -79.03799 7502 ft 214 kts 231°
2026-05-04 20:50 43.87676 -79.05353 7151 ft 210 kts 239°
2026-05-04 20:50 43.87119 -79.07194 7010 ft 208 kts 257°
2026-05-04 20:50 43.87031 -79.09203 6794 ft 210 kts 270°
2026-05-04 20:51 43.87087 -79.11189 6583 ft 209 kts 269°
2026-05-04 20:51 43.87140 -79.13222 6375 ft 208 kts 269°
2026-05-04 20:51 43.87189 -79.15221 6194 ft 207 kts 269°
2026-05-04 20:51 43.87237 -79.17219 6005 ft 207 kts 269°
2026-05-04 20:52 43.87283 -79.19171 5817 ft 202 kts 269°
2026-05-04 20:52 43.87327 -79.21074 5626 ft 195 kts 269°
2026-05-04 20:52 43.87368 -79.22956 5459 ft 195 kts 268°
2026-05-04 20:52 43.87409 -79.24831 5302 ft 194 kts 268°
2026-05-04 20:53 43.87451 -79.26699 5131 ft 194 kts 268°
2026-05-04 20:53 43.87492 -79.28567 4938 ft 194 kts 268°
2026-05-04 20:53 43.87308 -79.30392 4767 ft 191 kts 251°
2026-05-04 20:53 43.86687 -79.32011 4591 ft 191 kts 234°
2026-05-04 20:54 43.85858 -79.33381 4352 ft 181 kts 231°
2026-05-04 20:54 43.85022 -79.34674 4236 ft 180 kts 230°
2026-05-04 20:54 43.84169 -79.35946 4088 ft 180 kts 230°
2026-05-04 20:54 43.83309 -79.37214 3931 ft 180 kts 229°
2026-05-04 20:55 43.82449 -79.38478 3777 ft 179 kts 229°
2026-05-04 20:55 43.81597 -79.39727 3612 ft 178 kts 229°
2026-05-04 20:55 43.80751 -79.40967 3456 ft 174 kts 228°
2026-05-04 20:55 43.79969 -79.42110 3317 ft 154 kts 228°
2026-05-04 20:56 43.79263 -79.43144 3182 ft 144 kts 226°
2026-05-04 20:56 43.78590 -79.44131 3091 ft 139 kts 225°
2026-05-04 20:56 43.77931 -79.45095 3028 ft 137 kts 225°
2026-05-04 20:56 43.77281 -79.46047 3008 ft 135 kts 226°
2026-05-04 20:57 43.76633 -79.46993 2948 ft 136 kts 225°
2026-05-04 20:57 43.75981 -79.47946 2826 ft 137 kts 225°
2026-05-04 20:57 43.75330 -79.48897 2675 ft 136 kts 225°
2026-05-04 20:57 43.74684 -79.49840 2501 ft 134 kts 226°
2026-05-04 20:58 43.74045 -79.50774 2325 ft 133 kts 224°
2026-05-04 20:58 43.73408 -79.51703 2142 ft 132 kts 225°
2026-05-04 20:58 43.72779 -79.52621 1973 ft 134 kts 225°
2026-05-04 20:58 43.72140 -79.53554 1788 ft 133 kts 224°
2026-05-04 20:59 43.71506 -79.54477 1621 ft 132 kts 225°
2026-05-04 20:59 43.70873 -79.55399 1444 ft 133 kts 225°
2026-05-04 20:59 43.70241 -79.56316 1301 ft 132 kts 225°
2026-05-04 20:59 43.69606 -79.57237 1217 ft 132 kts 225°
2026-05-04 21:00 43.68956 -79.58182 1034 ft 137 kts 225°
2026-05-04 21:00 43.68323 -79.59113 852 ft 134 kts 224°
2026-05-04 21:00 43.67684 -79.60050 611 ft 126 kts 222°
2026-05-04 21:00 43.67137 -79.60830 565 ft 90 kts 227°
2026-05-04 21:01 43.66854 -79.61262 574 ft 26 kts 231°
2026-05-04 21:01 43.66808 -79.61404 572 ft 14 kts 297°
2026-05-04 21:01 43.66876 -79.61500 566 ft 13 kts 317°
2026-05-04 21:01 43.66925 -79.61561 564 ft 6 kts 315°
2026-05-04 21:02 43.66934 -79.61574 565 ft 0 kts 315°
2026-05-04 21:02 43.66968 -79.61597 572 ft 11 kts 350°
2026-05-04 21:03 43.67059 -79.61518 575 ft 18 kts 43°
2026-05-04 21:03 43.67149 -79.61403 569 ft 18 kts 42°
2026-05-04 21:03 43.67228 -79.61273 570 ft 18 kts 50°
2026-05-04 21:03 43.67307 -79.61300 567 ft 14 kts 315°
2026-05-04 21:04 43.67377 -79.61393 570 ft 16 kts 316°
2026-05-04 21:04 43.67475 -79.61522 566 ft 18 kts 318°
2026-05-04 21:04 43.67555 -79.61624 565 ft 13 kts 317°
2026-05-04 21:04 43.67631 -79.61670 569 ft 14 kts 20°
2026-05-04 21:05 43.67705 -79.61577 569 ft 14 kts 44°
2026-05-04 21:05 43.67767 -79.61487 564 ft 9 kts 47°
2026-05-04 21:05 43.67815 -79.61442 565 ft 9 kts 13°
2026-05-04 21:05 43.67873 -79.61406 566 ft 9 kts 33°
2026-05-04 21:06 43.67931 -79.61392 566 ft 8 kts 358°
2026-05-04 21:06 43.67985 -79.61408 562 ft 8 kts 346°
2026-05-04 21:06 43.68019 -79.61419 566 ft 1 kts 347°
2026-05-04 21:06 43.68026 -79.61421 566 ft 1 kts 347°
2026-05-04 21:07 43.68029 -79.61422 566 ft 0 kts 347°